Погода в Косте

Россия / Республика Северная Осетия — Алания     43°11′39″N   44°27′23″E
темп.,
°C
ветер,
м/с
пор.,
м/с
влажн.,
%
обл.,
%
осадки,
мм/ч
давл.,
гПа
погр.,
м
16 октября, сб
сб1600:00+12в01724 0.0 101911
03:00+11ю007951 0.0 101810
06:00+11всв11845 0.0 101810
09:00+15с117215 0.0 1016258
12:00+20св22555 0.0 1014796
15:00+20св224999 0.2 1013811
18:00+15всв117284 0.4 101413
21:00+14в01775 0.4 101310
17 октября, вс
вс1700:00+13з11815 0.0 101310
03:00+12зюз11850 0.0 101311
06:00+11зюз11881 0.0 101410
09:00+16зюз11700 0.0 1013238
12:00+20сз22525 0.0 1012770
15:00+20сз225295 0.0 1011956
18:00+17ссз2268100 0.1 101245
21:00+15зюз2276100 0.2 101430
18 октября, пн
пн1800:00+14зсз1182100 0.1 101325
03:00+14с1183100 0.4 101311
06:00+13сз1186100 0.4 101412
09:00+14сз3782100 0.9 1015439
12:00+11зюз3489100 11.5 1016284
15:00+12ююв1185100 12.6 1016147
18:00+12з1187100 0.0 101712
21:00+12зсз118897 0.0 101822
19 октября, вт
вт1900:00+12з1295100 0.5 101885
03:00+11зюз1298100 4.3 1018152
06:00+11ююв1193100 1.2 101837
09:00+13юв127770 1.2 1018195
12:00+17всв225626 0.0 10161116
15:00+16ссв4463100 0.2 1015741
18:00+10сз5881100 0.6 1018609
21:00+9ссз3588100 2.3 1018617
20 октября, ср
ср2000:00+7сз4589100 1.5 1019527
03:00+6зюз3489100 7.3 1021638
06:00+6зсз2588100 1.0 1022487
09:00+7зсз3787100 3.4 10241144
12:00+6зсз4691100 3.3 1026878
15:00+5з3493100 7.7 1027709
18:00+4з3496100 0.8 1030291
21:00+4зюз238956 0.9 103077